Weather in Bandar-e Abbas

Iran     27°11′36″N   56°18′19″E
temp.,
°C
wind,
m/s
gust,
m/s
humid.,
%
clouds,
%
prec.,
mm/h
press.,
hPa
HPBL,
m
28 july, wed
wed2801:30+33ese336275 0.0 993149
04:30+32ene3469100 0.0 992226
07:30+33ene3461100 0.0 993224
10:30+36se3346100 0.0 993459
13:30+36se4344100 0.0 992649
16:30+37s2343100 0.0 991411
19:30+37s224093 0.0 992151
22:30+36se114393 0.0 99490
29 july, thu
thu2901:30+35n114870 0.0 99355
04:30+35ene114372 0.0 99311
07:30+35ssw22445 0.0 99566
10:30+37ssw323514 0.0 996579
13:30+38sse433270 0.0 995870
16:30+38sse3232100 0.0 993453
19:30+37s1136100 0.0 99475
22:30+36e113998 0.0 99511
30 july, fri
fri3001:30+33ese2258100 0.0 99561
04:30+34nne1241100 0.0 99511
07:30+34se114583 0.0 99748
10:30+37ese2232100 0.0 998492
13:30+39sse4328100 0.0 997823
16:30+38s3333100 0.0 995417
19:30+38sw45335 0.0 996126
22:30+36sw22375 0.0 99712
31 july, sat
sat3101:30+34ene11503 0.0 99713
04:30+34nne11475 0.0 99711
07:30+34ene22475 0.0 99884
10:30+38s21340 0.0 999597
13:30+39s653067 0.0 997946
16:30+41ssw6528100 0.0 9951000
19:30+39sw563388 0.0 996248
22:30+36sw34415 0.0 997132
1 august, sun
sun101:30+34ssw22505 0.0 99716
04:30+33ene11558 0.0 99712
07:30+34ne23502 0.0 998109
10:30+37s21335 0.0 997593
13:30+39s54272 0.0 996793
16:30+41sw67230 0.0 994729
19:30+38w56221 0.0 994127
22:30+35se333967 0.0 99626